Terug naar catalogus

UND ROADS 1

ActiefWetenschapSSO
NORAD 64535·PAYLOAD·🇺🇸 United States

Gelanceerd Jun 23, 2025 vanaf Vandenberg Space Force Base

Loading…

Volgende Passages (komende 24 uur)

TLE

VersSource: Space-Track

Epoch: Sep 14, 2026, 02:26 UTC

1 64535U 25135H   26257.10201737  .00005113  00000-0  21819-3 0  9996
2 64535  97.4752  11.6642 0003448 210.0534 150.0505 15.23349474 68397

Volg UND ROADS 1 in realtime met AllMySat

Download on the App Store